2023/03/22 00:00:00,28.5, 5.7
2023/03/22 00:10:00,28.1, 5.5
2023/03/22 00:20:00,27.8, 5.7
2023/03/22 00:30:00,27.8, 6.0
2023/03/22 00:40:00,27.6, 5.8
2023/03/22 00:50:00,27.6, 6.0
2023/03/22 01:00:00,27.6, 5.4
2023/03/22 01:10:00,27.6, 5.7
2023/03/22 01:20:00,27.6, 5.3
2023/03/22 01:30:00,27.6, 5.5
2023/03/22 01:40:00,27.6, 5.7
2023/03/22 01:50:00,27.6, 5.3
2023/03/22 02:00:00,27.6, 5.5
2023/03/22 02:10:00,27.9, 5.8
2023/03/22 02:20:00,27.7, 5.7
2023/03/22 02:30:00,27.5, 5.7
2023/03/22 02:40:00,27.6, 5.8
2023/03/22 02:50:00,27.4, 5.9
2023/03/22 03:00:00,27.3, 5.7
2023/03/22 03:10:00,27.1, 5.7
2023/03/22 03:20:00,26.8, 5.6
2023/03/22 03:30:00,26.8, 5.8
2023/03/22 03:40:00,26.7, 6.1
2023/03/22 03:50:00,26.9, 5.7
2023/03/22 04:00:00,27.0, 5.7
2023/03/22 04:10:00,27.3, 6.0
2023/03/22 04:20:00,27.2, 6.0
2023/03/22 04:30:00,27.2, 6.0
2023/03/22 04:40:00,27.2, 5.9
2023/03/22 04:50:00,26.6, 6.2
2023/03/22 05:00:00,26.2, 6.0
2023/03/22 05:10:00,26.3, 5.8
2023/03/22 05:20:00,26.2, 5.8
2023/03/22 05:30:00,26.0, 6.0
2023/03/22 05:40:00,25.8, 6.0
2023/03/22 05:50:00,25.7, 6.2
2023/03/22 06:00:00,25.7, 6.1
2023/03/22 06:10:00,25.8, 6.7
2023/03/22 06:20:00,25.9, 6.6
2023/03/22 06:30:00,25.9, 6.4
2023/03/22 06:40:00,26.0, 7.2
2023/03/22 06:50:00,26.0, 6.5
2023/03/22 07:00:00,26.1, 6.3
2023/03/22 07:10:00,26.1, 6.4
2023/03/22 07:20:00,25.9, 6.3
2023/03/22 07:30:00,25.8, 6.5
2023/03/22 07:40:00,25.9, 6.6
2023/03/22 07:50:00,26.1, 6.9
2023/03/22 08:00:00,26.6, 7.7
2023/03/22 08:10:00,26.2, 7.4
2023/03/22 08:20:00,25.6, 7.7
2023/03/22 08:30:00,25.6, 8.6
2023/03/22 08:40:00,25.6, 9.1
2023/03/22 08:50:00,25.6, 9.3
2023/03/22 09:00:00,25.6, 9.6
2023/03/22 09:10:00,25.6, 9.6
2023/03/22 09:20:00,25.6,10.5
2023/03/22 09:30:00,25.5,11.4
2023/03/22 09:40:00,25.5,12.0
2023/03/22 09:50:00,25.5,12.8
2023/03/22 10:00:00,25.4,13.4
2023/03/22 10:10:00,25.6,13.8
2023/03/22 10:20:00,25.4,14.2
2023/03/22 10:30:00,25.0,14.7
2023/03/22 10:40:00,24.6,15.3
2023/03/22 10:50:00,24.4,15.6
2023/03/22 11:00:00,24.3,15.8
2023/03/22 11:10:00,24.4,16.2
2023/03/22 11:20:00,24.3,16.3
2023/03/22 11:30:00,24.3,16.1
2023/03/22 11:40:00,24.4,16.2
2023/03/22 11:50:00,24.5,15.6
2023/03/22 12:00:00,24.1,15.8
2023/03/22 12:10:00,23.7,15.6
2023/03/22 12:20:00,23.2,15.5
2023/03/22 12:30:00,23.6,15.5
2023/03/22 12:40:00,23.3,15.3
2023/03/22 12:50:00,23.1,14.5
2023/03/22 13:00:00,22.7,15.4
2023/03/22 13:10:00,22.3,15.3
2023/03/22 13:20:00,22.7,15.7
2023/03/22 13:30:00,22.7,15.6
2023/03/22 13:40:00,22.7,16.6
2023/03/22 13:50:00,22.7,16.5
2023/03/22 14:00:00,21.9,16.5
2023/03/22 14:10:00,21.8,16.5
2023/03/22 14:20:00,22.1,16.8
2023/03/22 14:30:00,22.0,15.2
2023/03/22 14:40:00,21.8,16.5
2023/03/22 14:50:00,21.2,15.6
2023/03/22 15:00:00,21.4,14.7
2023/03/22 15:10:00,21.2,14.2
2023/03/22 15:20:00,21.0,15.1
2023/03/22 15:30:00,20.8,14.9
2023/03/22 15:40:00,20.8,14.2
2023/03/22 15:50:00,20.4,14.3
2023/03/22 16:00:00,20.1,14.5
2023/03/22 16:10:00,20.0,14.1
2023/03/22 16:20:00,20.0,12.4
2023/03/22 16:30:00,19.9,12.5
2023/03/22 16:40:00,19.8,12.8
2023/03/22 16:50:00,19.6,12.0
2023/03/22 17:00:00,19.7,11.4
2023/03/22 17:10:00,19.4,11.6
2023/03/22 17:20:00,19.0,10.4
2023/03/22 17:30:00,19.0, 9.9
2023/03/22 17:40:00,19.3,10.0
2023/03/22 17:50:00,19.2, 9.5
2023/03/22 18:00:00,18.9, 9.2
2023/03/22 18:10:00,18.9, 9.3
2023/03/22 18:20:00,18.9, 9.1
2023/03/22 18:30:00,19.0, 9.2
2023/03/22 18:40:00,18.9, 8.9
2023/03/22 18:50:00,18.9, 8.9
2023/03/22 19:00:00,19.1, 8.9
2023/03/22 19:10:00,18.7, 9.6
2023/03/22 19:20:00,18.2,10.7
2023/03/22 19:30:00,18.2,10.7
2023/03/22 19:40:00,18.4, 8.9
2023/03/22 19:50:00,18.5, 9.4
2023/03/22 20:00:00,18.5, 8.5
2023/03/22 20:10:00,18.4, 9.1
2023/03/22 20:20:00,18.3, 8.9
2023/03/22 20:30:00,18.4, 8.8
2023/03/22 20:40:00,18.3, 9.3
2023/03/22 20:50:00,18.2, 8.9
2023/03/22 21:00:00,18.0, 9.1
2023/03/22 21:10:00,18.0, 9.1
2023/03/22 21:20:00,18.1, 9.6
2023/03/22 21:30:00,18.3, 9.2
2023/03/22 21:40:00,17.9, 9.2
2023/03/22 21:50:00,17.6, 8.8
2023/03/22 22:00:00,17.4, 9.4
2023/03/22 22:10:00,17.4, 9.7
2023/03/22 22:20:00,17.3, 9.9
2023/03/22 22:30:00,17.4, 8.9
2023/03/22 22:40:00,17.5, 9.2
2023/03/22 22:50:00,17.3, 9.5
2023/03/22 23:00:00,17.2, 9.6
2023/03/22 23:10:00,17.2, 9.5
2023/03/22 23:20:00,17.1, 9.6
2023/03/22 23:30:00,16.9,10.0
2023/03/22 23:40:00,16.3,10.0
2023/03/22 23:50:00,16.2,10.0
